CZ-6A DEB, 60762

Orbit data source: Space-Track

CZ-6A DEB, 60762 is space debris in LEO originally from a launch on Tue, 06 Aug 2024 UTC launched from the Taiyaun Space Center, China (TSC). Debris objects in space refer to the collection of defunct objects orbiting the Earth. Examples of debris include non-operational satellites, rocket bodies, and fragments generated from explosions, collisions, or faulty payload assembly.

Loading next visibility...
Identifier
60762, 2024-140EM
Orbit
LEO
Country
Flag of CNCN / PRC
Related business
Manufacturer
SAST
Mission
Spacecraft
Bus & Motor
Unknown
Mass
Unknown
Launch date (UTC)
2024-08-06 (2 years ago)
Launch vehicle
Unknown
Launch site
Taiyaun Space Center, China (TSC)
Object type
Payload
Rocket body
Debris
Shape & HBR
Unknown shape, 0.2 m
Radar Cross Section
Medium (>0.1 m² and <1 m²)

Expand to show TLE details & history
Last TLE update: 13 hours ago

TLE from 13 hours ago
0 CZ-6A DEB
1 60762U 24140EM  26171.30904453  .00000592  00000-0  13666-3 0  9998
2 60762  89.0316 272.9336 0100121 272.8027  86.1725 14.50964719 98085
Epoch: 2026-06-20T07:25Z
TLE epoch observation values (Epoch: 2026-06-20T07:25:01.447Z)
Latitude
0.00002°
Longitude
-106.84795°
Altitude
721.56 km
Speed
7.497 km/s
True Right ascension
18h 11m 44s
True Declination
0° 00' 00"
Sunlit
Object was in full shadow at epoch
Visualization orbit readout
Latitude
Unknown
Longitude
Unknown
Altitude
Unknown
Speed
Unknown
Apparent Right ascension
Unknown
Apparent Declination
Unknown
Sunlit
N/A
Visualization observer readout
Local Sidereal Time
07:22:58
Azimuth
Unknown
Elevation
Unknown
Doppler factor
Unknown
Orbital elements
Apogee altitude
790.467 km
Perigee altitude
648.344 km
Semi-major axis
7,097.543 km
Eccentricity
0.01001
Inclination
89.0316°
RAAN
272.9336°
Arg. of periapsis
272.8027°
True anomaly
87.31812°
Mean anomaly
86.1725°
Eccentric anomaly
86.74523°
Mean motion
3.62979 °/min
Orbital period
99.18 mins
BSTAR
0.00013666
Loading maneuver chart data...
Computing Atmospheric mass density...
Loading historical data...
Loading historical data...
Loading historical data...
Loading historical data...
Loading historical data...
Loading historical data...
Loading historical data...

Documentation

Showing up to 5 results
|